Вернуться в каталог

SL-14 R/B

АктивенPO
NORAD 21734·ROCKET BODY·🇷🇺 Russia

Запущен Sep 28, 1991 с Plesetsk Cosmodrome

Loading…

Ближайшие Пролёты (ближайшие 24 часа)

TLE

СвежийSource: Space-Track

Эпоха: Sep 14, 2026, 19:40 UTC

1 21734U 91068G   26257.81993065  .00000001  00000-0 -58334-4 0  9993
2 21734  82.5829  33.3251 0108392 179.5383 347.3501 12.54257399601039

Отслеживайте SL-14 R/B в реальном времени с AllMySat

Download on the App Store